Location: Béaulencourt
(50.0796°N, 2.8795°E)
Time: 09:06:35
(UTC+00:00)

COSMOS 2406 - Pass Details

Date: 20 January 2026
Orbit: 843 x 861 km, 71.0° (Epoch: 19 February)

Event Time Altitude Azimuth Distance (km) Brightness Sun altitude
Exits shadow 05:35:09 20° 327° (NNW) 1,875 4.6 -19.1°
Maximum altitude 05:39:12 77° 245° (WSW) 885 3.1 -18.5°
Drops below altitude 10° 05:44:56 10° 159° (SSE) 2,491 6.0 -17.6°
Sets 05:47:23 0° 158° (SSE) 3,424 6.8 -17.2°
